| time (UTC) | temp C | wind direction | speed KPH | gust KPH | rain 1hr cm | rain 24hr cm | rain mn cm | humidity % | barometer mb |
| 20260902155341 | 21 | 0.0 | 0.0 | 0.00 | 0.00 | 0.00 | 34 | 1020.5 | |
| 20260902153116 | 21 | 0.0 | 0.0 | 0.00 | 0.00 | 0.00 | 32 | 1020.4 | |
| 20260902152117 | 22 | 0.0 | 0.0 | 0.00 | 0.00 | 0.00 | 30 | 1020.5 | |
| 20260902151116 | 23 | 0.0 | 0.0 | 0.00 | 0.00 | 0.00 | 32 | 1020.6 | |
| 20260902150117 | 22 | 0.0 | 0.0 | 0.00 | 0.00 | 0.00 | 34 | 1020.6 | |
| 20260902145116 | 22 | 0.0 | 0.0 | 0.00 | 0.00 | 0.00 | 35 | 1020.6 | |
| 20260902144116 | 22 | 0.0 | 0.0 | 0.00 | 0.00 | 0.00 | 36 | 1020.7 | |
| 20260902143117 | 21 | 0.0 | 0.0 | 0.00 | 0.00 | 0.00 | 38 | 1020.8 | |
| 20260902142116 | 21 | 0.0 | 0.0 | 0.00 | 0.00 | 0.00 | 38 | 1020.8 | |
| 20260902141116 | 21 | 0.0 | 0.0 | 0.00 | 0.00 | 0.00 | 36 | 1020.8 | |
| 20260902140116 | 21 | 0.0 | 0.0 | 0.00 | 0.00 | 0.00 | 37 | 1020.8 | |
| 20260902135116 | 22 | 0.0 | 0.0 | 0.00 | 0.00 | 0.00 | 36 | 1020.8 | |
| 20260902134116 | 21 | 0.0 | 0.0 | 0.00 | 0.00 | 0.00 | 37 | 1020.8 | |
| 20260902133116 | 21 | 0.0 | 0.0 | 0.00 | 0.00 | 0.00 | 36 | 1020.8 | |
| 20260902132116 | 21 | 0.0 | 0.0 | 0.00 | 0.00 | 0.00 | 35 | 1020.9 | |
| 20260902125851 | 22 | 0.0 | 0.0 | 0.00 | 0.00 | 0.00 | 36 | 1021.1 | |
| 20260902124851 | 21 | 0.0 | 0.0 | 0.00 | 0.00 | 0.00 | 36 | 1021.2 | |
| 20260902123851 | 22 | 0.0 | 0.0 | 0.00 | 0.00 | 0.00 | 35 | 1021.2 | |
| 20260902122851 | 21 | 0.0 | 0.0 | 0.00 | 0.00 | 0.00 | 36 | 1021.3 | |
| 20260902121850 | 21 | 0.0 | 0.0 | 0.00 | 0.00 | 0.00 | 34 | 1021.4 | |
| 20260902115627 | 23 | 0.0 | 0.0 | 0.00 | 0.00 | 0.00 | 33 | 1021.5 | |
| 20260902114627 | 23 | 0.0 | 0.0 | 0.00 | 0.00 | 0.00 | 35 | 1021.6 | |
| 20260902113627 | 22 | 0.0 | 0.0 | 0.00 | 0.00 | 0.00 | 37 | 1021.7 | |
| 20260902112627 | 22 | 0.0 | 0.0 | 0.00 | 0.00 | 0.00 | 42 | 1021.8 | |
| 20260902110404 | 21 | 0.0 | 0.0 | 0.00 | 0.00 | 0.00 | 36 | 1022.0 | |
| 20260902105404 | 21 | 0.0 | 0.0 | 0.00 | 0.00 | 0.00 | 40 | 1022.0 | |
| 20260902103140 | 21 | 0.0 | 0.0 | 0.00 | 0.00 | 0.00 | 40 | 1022.0 | |
| 20260902102140 | 22 | 0.0 | 0.0 | 0.00 | 0.00 | 0.00 | 39 | 1022.2 | |
| 20260902101140 | 20 | 0.0 | 0.0 | 0.00 | 0.00 | 0.00 | 40 | 1022.2 | |
| 20260902100140 | 21 | 0.0 | 0.0 | 0.00 | 0.00 | 0.00 | 39 | 1022.4 | |
| 20260902093916 | 22 | 0.0 | 0.0 | 0.00 | 0.00 | 0.00 | 36 | 1022.5 | |
| 20260902092916 | 20 | 0.0 | 0.0 | 0.00 | 0.00 | 0.00 | 41 | 1022.5 | |
| 20260902091916 | 22 | 0.0 | 0.0 | 0.00 | 0.00 | 0.00 | 41 | 1022.4 | |
| 20260902090916 | 20 | 0.0 | 0.0 | 0.00 | 0.00 | 0.00 | 44 | 1022.5 | |
| 20260902085916 | 20 | 0.0 | 0.0 | 0.00 | 0.00 | 0.00 | 44 | 1022.7 | |
| 20260902084916 | 20 | 0.0 | 0.0 | 0.00 | 0.00 | 0.00 | 46 | 1022.8 | |
| 20260902083916 | 20 | 0.0 | 0.0 | 0.00 | 0.00 | 0.00 | 47 | 1022.8 | |
| 20260902080429 | 18 | 0.0 | 0.0 | 0.00 | 0.00 | 0.00 | 52 | 1022.9 | |
| 20260902075428 | 18 | 0.0 | 0.0 | 0.00 | 0.00 | 0.00 | 54 | 1022.8 | |
| 20260902074428 | 17 | 0.0 | 0.0 | 0.00 | 0.00 | 0.00 | 56 | 1022.8 | |
| 20260902073428 | 17 | 0.0 | 0.0 | 0.00 | 0.00 | 0.00 | 56 | 1022.9 | |
| 20260902072428 | 17 | 0.0 | 0.0 | 0.00 | 0.00 | 0.00 | 54 | 1022.9 | |
| 20260902071428 | 18 | 0.0 | 0.0 | 0.00 | 0.00 | 0.00 | 51 | 1022.9 | |
| 20260902070429 | 17 | 0.0 | 0.0 | 0.00 | 0.00 | 0.00 | 54 | 1022.8 | |
| 20260902065428 | 17 | 0.0 | 0.0 | 0.00 | 0.00 | 0.00 | 56 | 1022.8 | |
| 20260902064428 | 16 | 0.0 | 0.0 | 0.00 | 0.00 | 0.00 | 57 | 1022.8 | |
| 20260902063428 | 16 | 0.0 | 0.0 | 0.00 | 0.00 | 0.00 | 54 | 1022.8 | |
| 20260902061205 | 17 | 0.0 | 0.0 | 0.00 | 0.00 | 0.00 | 54 | 1022.6 | |
| 20260902060205 | 16 | 0.0 | 0.0 | 0.00 | 0.00 | 0.00 | 57 | 1022.6 | |
| 20260902055205 | 16 | 0.0 | 0.0 | 0.00 | 0.00 | 0.00 | 56 | 1022.6 | |
| 20260902054205 | 16 | 0.0 | 0.0 | 0.00 | 0.00 | 0.00 | 57 | 1022.5 | |
| 20260902051941 | 15 | 0.0 | 0.0 | 0.00 | 0.00 | 0.00 | 58 | 1022.4 | |
| 20260902050941 | 15 | 0.0 | 0.0 | 0.00 | 0.00 | 0.00 | 59 | 1022.4 | |
| 20260902045942 | 15 | 0.0 | 0.0 | 0.00 | 0.00 | 0.00 | 61 | 1022.5 | |
| 20260902044942 | 14 | 0.0 | 0.0 | 0.00 | 0.00 | 0.00 | 63 | 1022.5 | |
| 20260902042717 | 14 | 0.0 | 0.0 | 0.00 | 0.00 | 0.00 | 63 | 1022.4 | |
| 20260902041718 | 14 | 0.0 | 0.0 | 0.00 | 0.00 | 0.00 | 63 | 1022.4 | |
| 20260902040717 | 14 | 0.0 | 0.0 | 0.00 | 0.00 | 0.00 | 63 | 1022.4 | |
| 20260902035717 | 14 | 0.0 | 0.0 | 0.00 | 0.00 | 0.00 | 63 | 1022.4 | |
| 20260902034717 | 15 | 0.0 | 0.0 | 0.00 | 0.00 | 0.00 | 62 | 1022.4 | |
| 20260902033717 | 15 | 0.0 | 0.0 | 0.00 | 0.00 | 0.00 | 63 | 1022.4 | |
| 20260902032717 | 14 | 0.0 | 0.0 | 0.00 | 0.00 | 0.00 | 64 | 1022.4 | |
| 20260902024006 | 15 | 0.0 | 0.0 | 0.00 | 0.00 | 0.00 | 61 | 1022.4 | |
| 20260902023006 | 15 | 0.0 | 0.0 | 0.00 | 0.00 | 0.00 | 61 | 1022.4 | |
| 20260902022006 | 15 | 0.0 | 0.0 | 0.00 | 0.00 | 0.00 | 61 | 1022.4 | |
| 20260902021006 | 15 | 0.0 | 0.0 | 0.00 | 0.00 | 0.00 | 60 | 1022.4 | |
| 20260902020006 | 15 | 0.0 | 0.0 | 0.00 | 0.00 | 0.00 | 60 | 1022.5 | |
| 20260902015006 | 15 | 0.0 | 0.0 | 0.00 | 0.00 | 0.00 | 59 | 1022.5 | |
| 20260902014006 | 15 | 0.0 | 0.0 | 0.00 | 0.00 | 0.00 | 59 | 1022.5 | |
| 20260902013006 | 15 | 0.0 | 0.0 | 0.00 | 0.00 | 0.00 | 59 | 1022.6 | |
| 20260902012006 | 15 | 0.0 | 0.0 | 0.00 | 0.00 | 0.00 | 59 | 1022.6 | |
| 20260902011006 | 15 | 0.0 | 0.0 | 0.00 | 0.00 | 0.00 | 59 | 1022.5 | |
| 20260902010006 | 15 | 0.0 | 0.0 | 0.00 | 0.00 | 0.00 | 58 | 1022.6 | |
| 20260902003743 | 15 | 0.0 | 0.0 | 0.00 | 0.00 | 0.00 | 57 | 1022.6 | |
| 20260902000257 | 15 | 0.0 | 0.0 | 0.00 | 0.00 | 0.00 | 57 | 1022.6 | |
| 20260901235256 | 16 | 0.0 | 0.0 | 0.00 | 0.00 | 0.00 | 57 | 1022.5 | |
| 20260901234256 | 16 | 0.0 | 0.0 | 0.00 | 0.00 | 0.00 | 57 | 1022.5 | |
| 20260901233256 | 16 | 0.0 | 0.0 | 0.00 | 0.00 | 0.00 | 56 | 1022.6 | |
| 20260901232256 | 16 | 0.0 | 0.0 | 0.00 | 0.00 | 0.00 | 56 | 1022.6 | |
| 20260901230032 | 16 | 0.0 | 0.0 | 0.00 | 0.00 | 0.00 | 55 | 1022.7 | |
| 20260901223808 | 16 | 0.0 | 0.0 | 0.00 | 0.00 | 0.00 | 54 | 1022.7 | |
| 20260901222809 | 16 | 0.0 | 0.0 | 0.00 | 0.00 | 0.00 | 54 | 1022.7 | |
| 20260901221809 | 16 | 0.0 | 0.0 | 0.00 | 0.00 | 0.00 | 54 | 1022.7 | |
| 20260901220809 | 16 | 0.0 | 0.0 | 0.00 | 0.00 | 0.00 | 54 | 1022.8 | |
| 20260901215808 | 16 | 0.0 | 0.0 | 0.00 | 0.00 | 0.00 | 53 | 1022.7 | |
| 20260901213539 | 16 | 0.0 | 0.0 | 0.00 | 0.00 | 0.00 | 53 | 1022.6 | |
| 20260901211316 | 17 | 0.0 | 0.0 | 0.00 | 0.00 | 0.00 | 51 | 1022.6 | |
| 20260901205051 | 17 | 0.0 | 0.0 | 0.00 | 0.00 | 0.00 | 51 | 1022.5 | |
| 20260901204051 | 17 | 0.0 | 0.0 | 0.00 | 0.00 | 0.00 | 50 | 1022.4 | |
| 20260901203051 | 17 | 0.0 | 0.0 | 0.00 | 0.00 | 0.00 | 50 | 1022.4 | |
| 20260901202051 | 17 | 0.0 | 0.0 | 0.00 | 0.00 | 0.00 | 50 | 1022.5 | |
| 20260901201051 | 17 | 0.0 | 0.0 | 0.00 | 0.00 | 0.00 | 50 | 1022.5 | |
| 20260901200051 | 17 | 0.0 | 0.0 | 0.00 | 0.00 | 0.00 | 51 | 1022.4 | |
| 20260901195051 | 17 | 0.0 | 0.0 | 0.00 | 0.00 | 0.00 | 52 | 1022.3 | |
| 20260901194051 | 17 | 0.0 | 0.0 | 0.00 | 0.00 | 0.00 | 52 | 1022.3 | |
| 20260901193051 | 17 | 0.0 | 0.0 | 0.00 | 0.00 | 0.00 | 51 | 1022.2 | |
| 20260901185608 | 17 | 0.0 | 0.0 | 0.00 | 0.00 | 0.00 | 52 | 1022.0 | |
| 20260901184604 | 17 | 0.0 | 0.0 | 0.00 | 0.00 | 0.00 | 51 | 1021.9 | |
| 20260901183604 | 17 | 0.0 | 0.0 | 0.00 | 0.00 | 0.00 | 51 | 1021.9 | |
| 20260901182604 | 17 | 0.0 | 0.0 | 0.00 | 0.00 | 0.00 | 50 | 1021.8 | |
| 20260901181604 | 17 | 0.0 | 0.0 | 0.00 | 0.00 | 0.00 | 50 | 1021.8 | |
| 20260901180604 | 17 | 0.0 | 0.0 | 0.00 | 0.00 | 0.00 | 50 | 1021.6 | |
| 20260901173116 | 18 | 0.0 | 0.0 | 0.00 | 0.00 | 0.00 | 46 | 1021.4 | |
| 20260901172116 | 18 | 0.0 | 0.0 | 0.00 | 0.00 | 0.00 | 45 | 1021.4 | |
| 20260901171116 | 19 | 0.0 | 0.0 | 0.00 | 0.00 | 0.00 | 45 | 1021.3 | |
| 20260901170116 | 19 | 0.0 | 0.0 | 0.00 | 0.00 | 0.00 | 43 | 1021.3 | |
| 20260901165116 | 19 | 0.0 | 0.0 | 0.00 | 0.00 | 0.00 | 43 | 1021.3 | |
| 20260901164116 | 20 | 0.0 | 0.0 | 0.00 | 0.00 | 0.00 | 42 | 1021.2 | |
| 20260901163116 | 19 | 0.0 | 0.0 | 0.00 | 0.00 | 0.00 | 42 | 1021.3 | |
| 20260901162116 | 20 | 0.0 | 0.0 | 0.00 | 0.00 | 0.00 | 41 | 1021.3 | |
| 20260901161116 | 20 | 0.0 | 0.0 | 0.00 | 0.00 | 0.00 | 41 | 1021.3 | |
| 20260901160116 | 20 | 0.0 | 0.0 | 0.00 | 0.00 | 0.00 | 41 | 1021.3 |